Yankton, SD

8:15 AM CDT on October 23, 2019 (GMT -0500)
Gurney Municipal

Weather History for KYKN - September, 2019

Change the Weather History Date:

Monday, September 23, 2019

  Actual Average Record
Temperature  
Mean Temperature 66 °F -  
Max Temperature 82 °F 68 °F 93 °F (1958)
Min Temperature 50 °F 41 °F 30 °F (1989)
Cooling Degree Days 1    
Growing Degree Days 16 (Base 50)    
Moisture  
Dew Point 53 °F    
Average Humidity 76    
Maximum Humidity 100    
Minimum Humidity 39    
Precipitation  
Precipitation 0.00 in - - ()
Sea Level Pressure  
Sea Level Pressure 30.01 in    
Wind  
Wind Speed 3 mph (SSE)    
Max Wind Speed 12 mph    
Max Gust Speed -    
Visibility 8 miles    
Events Fog    
Averages and records for this station are not official NWS values.
T = Trace of Precipitation, MM = Missing Value Source: NWS Daily Summary

Daily Weather History Graph

Daily Weather History Graph

Search for Another Location

Airport or City:

Astronomy

Sep. 23, 2019 Rise Set
Actual Time 7:17 AM CDT 7:25 PM CDT
Civil Twilight 6:49 AM CDT 7:53 PM CDT
Nautical Twilight 6:16 AM CDT 8:26 PM CDT
Astronomical Twilight 5:42 AM CDT 9:00 PM CDT
Moon 12:52 AM CDT 4:29 PM CDT
Length of Visible Light 13h 04m
Length of Day
12h 07m
Waning Crescent, 33% of the Moon is Illuminated
Sep 23
Waning Crescent
Sep 28
New
Oct 5
First Quarter
Oct 13
Full
Oct 21
Last Quarter

Hourly Weather History & Observations

Time (CDT) Temp. Heat Index Dew Point Humidity Pressure Visibility Wind Dir Wind Speed Gust Speed Precip Events Conditions
12:56 AM 53.1 °F - 48.9 °F 86% 30.04 in 10.0 mi SW 3.5 mph - N/A   Clear
1:56 AM 53.1 °F - 51.1 °F 93% 30.04 in 10.0 mi SW 4.6 mph - N/A   Clear
2:56 AM 52.0 °F - 48.9 °F 89% 30.05 in 10.0 mi Calm Calm - N/A   Clear
3:56 AM 50.0 °F - 46.9 °F 89% 30.06 in 10.0 mi Calm Calm - N/A   Clear
4:56 AM 50.0 °F - 48.0 °F 93% 30.05 in 10.0 mi Calm Calm - N/A   Clear
5:56 AM 50.0 °F - 50.0 °F 100% 30.06 in 10.0 mi SE 3.5 mph - N/A   Scattered Clouds
6:15 AM 50.0 °F - 48.2 °F 94% 30.02 in 0.8 mi Calm Calm - N/A   Clear
6:23 AM 50.0 °F - 48.2 °F 94% 30.02 in 1.2 mi Calm Calm - N/A   Clear
6:26 AM 50.0 °F - 48.2 °F 94% 30.02 in 4.0 mi ESE 3.5 mph - N/A   Clear
6:56 AM 50.0 °F - 48.9 °F 96% 30.06 in 10.0 mi SE 3.5 mph - N/A   Clear
7:43 AM 51.8 °F - 50.0 °F 94% 30.03 in 1.0 mi East 3.5 mph - N/A   Clear
7:45 AM 50.0 °F - 50.0 °F 100% 30.03 in 0.5 mi Calm Calm - N/A Fog Fog
7:56 AM 51.1 °F - 50.0 °F 96% 30.08 in 0.8 mi South 3.5 mph - N/A   Clear
7:58 AM 51.8 °F - 50.0 °F 94% 30.04 in 1.5 mi South 3.5 mph - N/A   Clear
8:00 AM 51.8 °F - 50.0 °F 94% 30.04 in 5.0 mi Calm Calm - N/A   Clear
8:56 AM 57.0 °F - 53.1 °F 87% 30.08 in 10.0 mi SSE 4.6 mph - N/A   Clear
9:56 AM 62.1 °F - 54.0 °F 75% 30.08 in 10.0 mi SE 4.6 mph - N/A   Clear
10:56 AM 66.0 °F - 55.0 °F 68% 30.07 in 10.0 mi East 3.5 mph - N/A   Clear
11:56 AM 71.1 °F - 57.9 °F 63% 30.05 in 10.0 mi ESE 4.6 mph - N/A   Clear
12:56 PM 75.0 °F - 54.0 °F 48% 30.04 in 10.0 mi SE 6.9 mph - N/A   Clear
1:56 PM 77.0 °F - 53.1 °F 43% 30.01 in 10.0 mi SE 3.5 mph - N/A   Clear
2:56 PM 80.1 °F 79.9 °F 53.1 °F 39% 29.98 in 10.0 mi SSE 6.9 mph - N/A   Clear
3:56 PM 80.1 °F 80.1 °F 55.0 °F 42% 29.96 in 10.0 mi SE 9.2 mph - N/A   Clear
4:56 PM 81.0 °F 80.8 °F 55.9 °F 42% 29.95 in 10.0 mi South 9.2 mph - N/A   Clear
5:56 PM 82.0 °F 82.0 °F 57.9 °F 44% 29.94 in 10.0 mi SSW 6.9 mph - N/A   Clear
6:56 PM 78.1 °F - 57.9 °F 50% 29.93 in 10.0 mi SE 4.6 mph - N/A   Clear
7:56 PM 73.9 °F - 59.0 °F 59% 29.93 in 10.0 mi ESE 5.8 mph - N/A   Clear
8:56 PM 70.0 °F - 61.0 °F 73% 29.92 in 10.0 mi ESE 4.6 mph - N/A   Clear
9:56 PM 68.0 °F - 61.0 °F 78% 29.91 in 10.0 mi Calm Calm - N/A   Clear
10:56 PM 66.9 °F - 57.9 °F 73% 29.91 in 10.0 mi South 3.5 mph - N/A   Clear
11:56 PM 71.1 °F - 55.9 °F 59% 29.90 in 10.0 mi SSW 11.5 mph - N/A   Clear